Weather in Saanen

Switzerland     46°29′23″N   7°15′31″E
temp.,
°C
wind,
m/s
gust,
m/s
humid.,
%
clouds,
%
prec.,
mm/h
press.,
hPa
HPBL,
m
14 august, sun
sun1423:00+12se22594 0.0 101617
02:00+12sse3260100 0.0 101630
05:00+12sse2258100 0.0 101324
08:00+14sse225593 0.0 101241
11:00+20nw2241100 0.0 1010869
14:00+19wnw3251100 0.0 10111233
17:00+16sse0176100 0.4 1010326
20:00+14nw118782 4.8 101011
15 august, mon
mon1523:00+11s119395 3.4 101211
02:00+10se22925 4.6 101124
05:00+9se22930 0.0 101119
08:00+11sse118959 0.0 101039
11:00+15wnw118133 1.4 1010315
14:00+16wnw2375100 2.8 1009752
17:00+17nw12658 1.8 1009675
20:00+13nnw118195 2.6 101011
16 august, tue
tue1623:00+10se21865 0.0 101313
02:00+9se22875 0.0 101318
05:00+9se22865 0.0 101221
08:00+11se22790 0.0 101243
11:00+20wsw12385 0.0 10111330
14:00+23wnw23284 0.0 10102578
17:00+22n323449 0.0 10092043
20:00+17e1167100 0.1 101012
17 august, wed
wed1723:00+14se2278100 0.3 101229
02:00+11sw2297100 2.1 101440
05:00+11ese1197100 2.6 101316
08:00+12se119592 2.6 101461
11:00+16sw118116 0.9 1013223
14:00+17n2173100 3.4 1012804
17:00+16n1284100 4.1 1012212
20:00+11s1194100 8.1 101416
18 august, thu
thu1823:00+11s1299100 2.4 101678
02:00+10sse3396100 4.4 101590
05:00+9s2295100 0.2 101533
08:00+10sw009149 0.2 101451
11:00+15nnw216620 0.2 10141022
14:00+14nnw228750 3.3 1014555
17:00+14n2281100 3.0 1013586
20:00+11nne1189100 7.8 101315